• Processing (Info)

  • MPEC 2022-P30 : 2022 OD6

    The following Minor Planet Electronic Circular may be linked-to from your own Web pages, but must not otherwise be redistributed electronically.

    A form allowing access to any MPEC is at the bottom of this page.


    Read MPEC 2022-P29 Read MPEC 2022-P31


    M.P.E.C. 2022-P30                                Issued 2022 August 2, 22:36 UT
    
         The Minor Planet Electronic Circulars contain information on unusual
             minor planets and routine data on comets.  They are published
        on behalf of Division F of the International Astronomical Union by the
              Minor Planet Center, Smithsonian Astrophysical Observatory,
                              Cambridge, MA 02138, U.S.A.
    
                 Prepared using the Tamkin Foundation Computer Network
    
                                  MPC@CFA.HARVARD.EDU
                URL https://www.minorplanetcenter.net/    ISSN 1523-6714
    
                                    2022 OD6                                 
    
    
    Observations:
         K22O06D* C2022 07 29.54157623 24 38.219+06 02 16.00         21.55wUEP030F52
         K22O06D  C2022 07 29.55365523 24 41.579+06 03 09.77         21.48wUEP030F52
         K22O06D  C2022 07 29.56576623 24 44.905+06 04 03.59         21.30wUEP030F52
         K22O06D  C2022 07 29.57783823 24 48.213+06 04 56.64         21.45wUEP030F52
         K22O06D KC2022 07 30.27960023 28 18.68 +06 56 36.7          21.4 VuEP030H21
         K22O06D KC2022 07 30.28799123 28 21.04 +06 57 14.2          20.9 VuEP030H21
         K22O06D KC2022 07 30.29759523 28 23.73 +06 57 57.1          21.4 VuEP030H21
         K22O06D ^C2022 08 01.47594723 39 13.691+09 39 15.05         21.52GVEP030568
         K22O06D ^C2022 08 01.47692623 39 13.957+09 39 19.35         21.19GVEP030568
         K22O06D ^C2022 08 01.47791923 39 14.245+09 39 23.90         21.21GVEP030568
         K22O06D  C2022 08 02.49619123 44 18.108+10 54 09.93         21.42wUEP030F52
         K22O06D  C2022 08 02.51926223 44 24.533+10 55 52.14         21.09wUEP030F52
         K22O06D  C2022 08 02.53094023 44 27.744+10 56 42.90         21.28wUEP030F52
         K22O06D  C2022 08 02.58751623 44 43.432+11 00 51.27         20.94GVEP030F52
    
    Observer details:
    568 Mauna Kea.  Observers R. Wainscoat, L. Wells, H. Flewelling.  Measurers R.
        Weryk, R. Wainscoat.  3.6-m Canada-France-Hawaii Telescope + CCD.
    F52 Pan-STARRS 2, Haleakala.  Observers J. Bulger, T. Lowe, A. Schultz, I.
        Smith, K. Chambers, T. Dukes.  Measurers K. Chambers, S. Chastel, T. de
        Boer, J. Fairlamb, H. Gao, M. Huber, C.-C. Lin, E. Magnier, Y.
        Ramanjooloo, R. Wainscoat, R. Weryk.  1.8-m Ritchey-Chretien + CCD.
    H21 Astronomical Research Observatory, Westfield.  Observer R. Holmes.
        Measurers T. Linder, R. Holmes, L. Horn.  0.76-m f/3.0 astrograph + CCD.
    
    Orbital elements:
    2022 OD6                                                 Earth MOID = 0.1050 AU
    Epoch 2022 Aug. 9.0 TT = JDT 2459800.5                  Veres                   
    M 356.40363              (2000.0)            P               Q                  
    n   0.32358758     Peri.   36.66887     +0.89817671     +0.43240498             
    a   2.1012359      Node   297.52917     -0.42163212     +0.79607831             
    e   0.4749714      Incl.    5.13709     -0.12451889     +0.42342090             
    P   3.05           H   23.39          G   0.15           U   8                  
    Residuals in seconds of arc
    220729 F52  0.2-  0.1-    220730 H21  0.4+  0.2+    220802 F52  0.0   0.0
    220729 F52  0.2+  0.1+    220730 H21  0.1+  0.3+    220802 F52  0.2+  0.4+
    220729 F52  0.1+  0.2+    220801 568  0.0   0.0     220802 F52  0.2-  0.2-
    220729 F52  0.2-  0.3-    220801 568 (0.1-  0.1-)   220802 F52  0.1+  0.2-
    220730 H21  0.5+  0.2+    220801 568  0.0   0.0
    
    Ephemeris:
    2022 OD6                 a,e,i = 2.10, 0.47, 5                   q = 1.1032
    Date    TT    R. A. (2000) Decl.     Delta      r    Elong.  Phase     V
    2022 07 03    21 29 13.2 -19 14 55   0.2515  1.2249   142.1    30.7    22.2
    ...
    2022 07 18    22 29 45.1 -07 16 05   0.1876  1.1636   138.6    35.3    21.5
    ...
    2022 07 26    23 07 15.5 +01 43 04   0.1683  1.1386   133.8    40.1    21.4
    ...
    2022 08 01    23 36 49.7 +09 04 17   0.1610  1.1240   129.3    44.3    21.4
    2022 08 02    23 41 48.3 +10 17 54   0.1604  1.1219   128.5    45.0    21.4
    2022 08 03    23 46 47.0 +11 31 03   0.1599  1.1199   127.8    45.7    21.4
    ...
    2022 08 09    00 16 23.8 +18 30 19   0.1603  1.1103   123.4    49.6    21.5
    ...
    2022 08 17    00 53 43.5 +26 22 21   0.1677  1.1038   119.1    53.3    21.7
    ...
    2022 09 01    01 49 35.7 +35 42 09   0.1938  1.1113   117.2    53.9    22.0
    
    M. P. C. Staff               (C) Copyright 2022 MPC           M.P.E.C. 2022-P30
    


    Read MPEC 2022-P29 Read MPEC 2022-P31


    MPEC number:

    Enter an MPEC number in one of the following forms:

    • 1997-B01 (the full form)
    • J97B01 (the packed version of the full form)
    • B01 (the abbreviated form)